Terminal Aerodrome Forecast
Issued by NWS

Current Version | Previous Version | Graphics & Text | Print | Product List | Glossary On
Versions: 1 2 3 4 5 6 7 8 9 10 11 12 13 14 15 16 17 18 19 20 21 22 23 24 25 26
000
FTUS41 KILN 150700 AAA
TAFLCK
TAF AMD
KLCK 150757Z 1508/1606 00000KT P6SM OVC035
     FM150830 00000KT 6SM BR BKN050
     FM150930 00000KT 4SM BR BKN050
      TEMPO 1510/1513 1SM BR
     FM151300 14004KT P6SM BKN025
     FM152000 14007KT P6SM BKN025 OVC250
     FM160000 14005KT P6SM SCT050 BKN100
     FM160300 14004KT P6SM -RA OVC025=

USA.gov is the U.S. government's official web portal to all federal, state and local government web resources and services.